GW3478 Weather Reports


time (UTC)temp
C
wind
direction
speed
KPH
gust
KPH
rain 1hr
cm
rain 24hr
cm
rain mn
cm
humidity
%
barometer
mb
20260504081551 9 40 12.9 29.0 0.00 0.00 0.00 51 1015.1
20260504044536 13 42 4.8 12.9 0.00 0.00 0.00 36 1009.6
20260504043049 14 52 4.8 12.9 0.00 0.00 0.00 36 1009.1
20260504041540 14 37 6.4 14.5 0.00 0.00 0.00 35 1008.6
20260504040045 15 34 8.0 17.7 0.00 0.00 0.00 33 1008.5
20260504034541 15 45 8.0 17.7 0.00 0.00 0.00 33 1008.3
20260504033039 16 40 6.4 22.5 0.00 0.00 0.00 33 1007.9
20260504031546 16 54 6.4 17.7 0.00 0.00 0.00 30 1007.4
20260504030040 16 58 1.6 8.0 0.00 0.00 0.00 27 1007.2
20260504024544 17 37 6.4 12.9 0.00 0.00 0.00 23 1007.1
20260504023038 18 22 0.0 3.2 0.00 0.00 0.00 21 1006.9
20260504021544 19 28 1.6 8.0 0.00 0.00 0.00 19 1007.0
20260504020045 20 30 3.2 16.1 0.00 0.00 0.00 19 1007.0
20260504014545 21 0 1.6 6.4 0.00 0.00 0.00 18 1006.9
20260504013040 22 22 4.8 12.9 0.00 0.00 0.00 17 1006.9
20260504011538 23 344 11.3 22.5 0.00 0.00 0.00 17 1007.0
20260504010037 23 27 4.8 20.9 0.00 0.00 0.00 17 1007.0
20260504004544 23 336 12.9 29.0 0.00 0.00 0.00 16 1007.0
20260504003051 23 311 22.5 33.8 0.00 0.00 0.00 16 1007.2
20260504001545 23 345 14.5 30.6 0.00 0.00 0.00 15 1007.4
20260504000111 23 349 19.3 30.6 0.00 0.00 0.00 15 1007.4
20260503234550 23 315 16.1 27.4 0.00 0.00 0.00 15 1007.4
20260503233044 23 335 16.1 32.2 0.00 0.00 0.00 16 1007.5
20260503231537 23 303 12.9 27.4 0.00 0.00 0.00 16 1007.8
20260503230037 23 309 25.7 46.7 0.00 0.00 0.00 16 1007.9
20260503224544 23 274 17.7 43.5 0.00 0.00 0.00 16 1008.2
20260503223041 23 293 17.7 40.2 0.00 0.00 0.00 16 1008.3
20260503221549 23 336 19.3 38.6 0.00 0.00 0.00 17 1008.5
20260503220038 23 293 16.1 35.4 0.00 0.00 0.00 17 1008.6
20260503214542 22 266 30.6 48.3 0.00 0.00 0.00 16 1008.7
20260503213045 22 304 24.1 43.5 0.00 0.00 0.00 16 1009.1
20260503211544 22 271 22.5 38.6 0.00 0.00 0.00 15 1009.2
20260503210039 22 289 17.7 40.2 0.00 0.00 0.00 17 1009.4
20260503204538 22 302 19.3 40.2 0.00 0.00 0.00 17 1009.7
20260503203056 21 322 19.3 45.1 0.00 0.00 0.00 17 1009.9
20260503201539 21 323 20.9 37.0 0.00 0.00 0.00 18 1010.0
20260503200037 21 284 27.4 53.1 0.00 0.00 0.00 18 1010.2
20260503194550 21 269 14.5 49.9 0.00 0.00 0.00 18 1010.4
20260503193041 21 315 25.7 43.5 0.00 0.00 0.00 17 1010.6
20260503191541 21 307 24.1 40.2 0.00 0.00 0.00 18 1010.9
20260503190040 21 238 17.7 48.3 0.00 0.00 0.00 18 1011.0
20260503184537 21 276 24.1 45.1 0.00 0.00 0.00 18 1011.1
20260503183037 21 241 17.7 32.2 0.00 0.00 0.00 19 1011.3
20260503181556 20 248 17.7 37.0 0.00 0.00 0.00 21 1011.5
20260503180043 20 303 16.1 29.0 0.00 0.00 0.00 23 1011.8
20260503174540 20 282 22.5 30.6 0.00 0.00 0.00 24 1012.0
20260503173051 19 324 17.7 25.7 0.00 0.00 0.00 26 1012.2
20260503171540 18 280 11.3 25.7 0.00 0.00 0.00 33 1012.2